Regional Weather Roundup
Issued by NWS

Home | Current Version | Previous Version | Graphics & Text | Print | Product List | Glossary On
Versions: 1 2 3 4 5 6 7 8 9 10 11 12 13 14 15 16 17 18 19 20 21 22 23 24 25 26 27 28 29 30 31 32 33 34 35 36 37 38 39 40 41 42 43 44 45 46 47 48 49 50
000
ASUS44 KMEG 251910
RWRTN
TENNESSEE HOURLY STATE WEATHER ROUNDUP
NATIONAL WEATHER SERVICE MEMPHIS TN
100 PM CST SUN JAN 25 2015

TNZ002-004-019-021-049-052-054-088>092-252000-
WEST TENNESSEE

CITY           SKY/WX    TMP DP  RH WIND       PRES   REMARKS
MEMPHIS INTL   MOSUNNY   53  41  63 SW14G21   29.69F
NWS MEMPHIS      N/A     51 N/A N/A MISG        N/A
JACKSON        CLOUDY    47  42  83 SW15      29.66F
DYERSBURG      CLOUDY    46  32  57 SW6       29.66F
UNION CITY     CLOUDY    43  43 100 SW10      29.63S
PARIS          CLOUDY    43  39  87 SW15      29.63F
LEXINGTON      CLOUDY    46  41  81 S6        29.65F
SAVANNAH       CLOUDY    52  37  58 SW9       29.69F
$$

TNZ008-025-027-028-033-062-065-066-252000-
NORTH MIDDLE TENNESSEE

CITY           SKY/WX    TMP DP  RH WIND       PRES   REMARKS
NASHVILLE      CLOUDY    56  36  47 SW16G22   29.65F
CLARKSVILLE    LGT RAIN  50  39  66 SW13      29.62F
SMYRNA         PTSUNNY   55  36  49 SW14G21   29.66F
COOKEVILLE     MOSUNNY   54  36  50 SW16      29.66F
CROSSVILLE     MOSUNNY   49  32  52 S9G16     29.69F
$$

TNZ061-075-076-078-094-096-097-252000-
SOUTH MIDDLE TENNESSEE

CITY           SKY/WX    TMP DP  RH WIND       PRES   REMARKS
FAYETTEVILLE   SUNNY     54  36  50 MISG      29.68F
TULLAHOMA      SUNNY     54  36  50 S16       29.68F
WINCHESTER     SUNNY     55  36  47 SW10      29.70F
MCMINNVILLE    SUNNY     55  37  50 S13       29.67F
COLUMBIA         N/A     57  41  54 SW17      29.64F
SHELBYVILLE    MOSUNNY   55  39  54 S15       29.68F
$$

TNZ017-018-042-046-047-252000-
NORTHEAST TENNESSEE

CITY           SKY/WX    TMP DP  RH WIND       PRES   REMARKS
TRI CITIES     PTSUNNY   52  32  46 E3        29.75F
ELIZABETHTON   CLEAR     52  30  43 CALM      29.73F
$$

TNZ012-013-036-069-073-074-252000-
CENTRAL EAST TENNESSEE

CITY           SKY/WX    TMP DP  RH WIND       PRES   REMARKS
KNOXVILLE      PTSUNNY   53  34  48 SW18G30   29.74F
OAK RIDGE      MOSUNNY   53  33  46 VRB7G20   29.75F
GATLINBURG     CLEAR     52  34  50 N5        29.74F
MORRISTOWN     CLEAR     52  34  50 W5        29.75F
$$

TNZ083-085-099-252000-
SOUTHEAST TENNESSEE

CITY           SKY/WX    TMP DP  RH WIND       PRES   REMARKS
CHATTANOOGA    MOSUNNY   55  33  43 S18G25    29.74F
$$

SKY/WX REPORTED AS FAIR MEANS FEW OR NO CLOUDS BELOW
12 THOUSAND FEET.



USA.gov is the U.S. government's official web portal to all federal, state and local government web resources and services.